User: anonymous   Login
Location: Holyhead Bay
(53.3667°N, 4.6667°W)
Time: 17:12:46
(UTC+00:00)
Language:

H-2A R/B - Orbit

View from above orbital plane
View from above orbital plane
View from above satellite
View from above satellite

Ground track
Ground track

The orbit data is extracted from the following two-line orbital elements,

1 28932U 06002B   21166.10676455 -.00000001  00000-0  64976-5 0  9991
2 28932  98.3269 182.9371 0087410 214.4386 186.8332 14.92571467835342
Epoch (UTC): 15 June 2021 02:33:44
Eccentricity: 0.0087410
inclination: 98.3269°
perigee height: 529 km
apogee height: 651 km
right ascension of ascending node: 182.9371°
argument of perigee: 214.4386°
revolutions per day: 14.92571467
mean anomaly at epoch: 186.8332°
orbit number at epoch: 83534

The dashed part of the orbit path shows where the satellite is in the earth's shadow,  

DLR